TimePDT,TemperatureF,Dew PointF,Humidity,Sea Level PressureIn,VisibilityMPH,Wind Direction,Wind SpeedMPH,Gust SpeedMPH,PrecipitationIn,Events,Conditions,WindDirDegrees,DateUTC
12:53 AM,57.0,53.1,87,30.05,10.0,WNW,8.1,-,N/A,,Clear,300,2013-07-18 07:53:00
1:53 AM,55.9,53.1,90,30.05,10.0,NW,6.9,-,N/A,,Clear,310,2013-07-18 08:53:00
2:53 AM,55.0,53.1,93,30.03,10.0,WNW,5.8,-,N/A,,Clear,300,2013-07-18 09:53:00
3:21 AM,55.4,53.6,94,30.04,10.0,NW,5.8,-,N/A,,Partly Cloudy,310,2013-07-18 10:21:00
3:53 AM,54.0,52.0,93,30.03,8.0,West,5.8,-,N/A,,Partly Cloudy,280,2013-07-18 10:53:00
4:17 AM,55.4,53.6,94,30.03,8.0,West,5.8,-,N/A,,Mostly Cloudy,270,2013-07-18 11:17:00
4:53 AM,55.9,53.1,90,30.02,9.0,West,6.9,-,N/A,,Overcast,260,2013-07-18 11:53:00
5:53 AM,55.0,53.1,93,30.03,9.0,WSW,5.8,-,N/A,,Overcast,240,2013-07-18 12:53:00
6:53 AM,55.0,53.1,93,30.04,5.0,SW,3.5,-,N/A,,Overcast,230,2013-07-18 13:53:00
7:53 AM,57.0,53.1,87,30.05,9.0,Calm,Calm,-,N/A,,Overcast,0,2013-07-18 14:53:00
8:25 AM,57.0,53.1,87,30.05,9.0,Calm,Calm,-,N/A,,Scattered Clouds,0,2013-07-18 15:25:00
8:38 AM,59.0,53.6,82,30.06,10.0,WSW,4.6,-,N/A,,Scattered Clouds,240,2013-07-18 15:38:00
8:53 AM,61.0,53.1,75,30.06,10.0,Variable,3.5,-,N/A,,Clear,0,2013-07-18 15:53:00
9:53 AM,66.0,53.1,63,30.04,10.0,Calm,Calm,-,N/A,,Clear,0,2013-07-18 16:53:00
10:53 AM,73.9,52.0,46,30.02,10.0,Variable,3.5,-,N/A,,Clear,0,2013-07-18 17:53:00
11:53 AM,81.0,51.1,35,30.00,10.0,West,4.6,-,N/A,,Clear,260,2013-07-18 18:53:00
12:53 PM,87.1,41.0,20,29.98,10.0,SW,9.2,-,N/A,,Clear,220,2013-07-18 19:53:00
1:53 PM,90.0,39.9,17,29.96,10.0,West,8.1,-,N/A,,Clear,280,2013-07-18 20:53:00
2:53 PM,91.9,34.0,13,29.95,10.0,WNW,13.8,-,N/A,,Clear,300,2013-07-18 21:53:00
3:53 PM,91.9,35.1,13,29.94,10.0,West,10.4,-,N/A,,Clear,280,2013-07-18 22:53:00
4:53 PM,91.0,34.0,13,29.92,10.0,WNW,15.0,-,N/A,,Clear,300,2013-07-18 23:53:00
5:53 PM,88.0,42.1,20,29.91,10.0,WNW,13.8,-,N/A,,Clear,290,2013-07-19 00:53:00
6:53 PM,81.0,46.0,29,29.91,10.0,WNW,13.8,-,N/A,,Clear,290,2013-07-19 01:53:00
7:53 PM,75.0,50.0,41,29.92,10.0,West,10.4,-,N/A,,Clear,280,2013-07-19 02:53:00
8:53 PM,70.0,50.0,49,29.93,10.0,WNW,6.9,-,N/A,,Clear,300,2013-07-19 03:53:00
9:53 PM,66.0,51.1,59,29.95,10.0,NW,8.1,-,N/A,,Clear,310,2013-07-19 04:53:00
10:53 PM,63.0,51.1,65,29.94,10.0,NW,6.9,-,N/A,,Clear,310,2013-07-19 05:53:00
11:53 PM,62.1,50.0,65,29.94,10.0,WNW,6.9,-,N/A,,Clear,290,2013-07-19 06:53:00